Change the Weather History Date:

Monday, March 31, 2014

  Actual Average Record
Temperature  
Mean Temperature 58 °F -  
Max Temperature 73 °F 67 °F 85 °F (1986)
Min Temperature 44 °F 43 °F 27 °F (1950)
Degree Days  
Heating Degree Days 6    
Growing Degree Days 8 (Base 50)    
Moisture  
Dew Point 19 °F    
Average Humidity 23    
Maximum Humidity 40    
Minimum Humidity 12    
Precipitation  
Precipitation 0.00 in - - ()
Sea Level Pressure  
Sea Level Pressure 30.04 in    
Wind  
Wind Speed 6 mph (West)    
Max Wind Speed 13 mph    
Max Gust Speed -    
Visibility 10 miles    
Events      
Averages and records for this station are not official NWS values.
T = Trace of Precipitation, MM = Missing Value Source: NWS Daily Summary

Daily Weather History Graph

Daily Weather History Graph

Search for Another Location

Airport or City:

Trip Planner

Search our weather history database for the weather conditions in past years. The results will help you decide how hot, cold, wet, or windy it might be!

Date:

Astronomy

Mar. 31, 2014 Rise Set
Actual Time 7:13 AM EDT 7:46 PM EDT
Civil Twilight 6:47 AM EDT 8:12 PM EDT
Nautical Twilight 6:17 AM EDT 8:42 PM EDT
Astronomical Twilight 5:46 AM EDT 9:13 PM EDT
Moon 7:37 AM EDT (3/31) 9:00 PM EDT (3/31)
Length of Visible Light 13h 24m
Length of Day
12h 33m
New Moon, 1% of the Moon is Illuminated
Mar 31
New Moon
Apr 7
First Quarter
Apr 15
Full
Apr 22
Last Quarter
Apr 29
New

Hourly Weather History & Observations

Time (EDT) Temp. Windchill Dew Point Humidity Pressure Visibility Wind Dir Wind Speed Gust Speed Precip Events Conditions
12:53 AM 50.0 °F - 17.1 °F 27% 30.00 in 10.0 mi NW 8.1 mph - N/A   Clear
1:53 AM 46.9 °F - 19.0 °F 33% 30.01 in 10.0 mi NW 9.2 mph - N/A   Clear
2:53 AM 46.0 °F 41.9 °F 21.0 °F 37% 30.02 in 10.0 mi WNW 8.1 mph - N/A   Clear
3:53 AM 46.0 °F 40.2 °F 19.9 °F 35% 30.01 in 10.0 mi WNW 12.7 mph - N/A   Clear
4:53 AM 46.0 °F 43.1 °F 19.0 °F 34% 30.00 in 10.0 mi Variable 5.8 mph - N/A   Clear
5:53 AM 46.0 °F 42.5 °F 17.1 °F 31% 30.01 in 10.0 mi NW 6.9 mph - N/A   Clear
6:53 AM 45.0 °F 39.3 °F 19.0 °F 36% 30.02 in 10.0 mi WNW 11.5 mph - N/A   Clear
7:53 AM 44.1 °F - 21.0 °F 40% 30.05 in 10.0 mi Calm Calm - N/A   Clear
8:53 AM 48.9 °F - 18.0 °F 29% 30.08 in 10.0 mi West 4.6 mph - N/A   Clear
9:53 AM 55.0 °F - 16.0 °F 22% 30.09 in 10.0 mi Calm Calm - N/A   Clear
10:53 AM 60.1 °F - 14.0 °F 16% 30.11 in 10.0 mi NW 3.5 mph - N/A   Clear
11:53 AM 63.0 °F - 17.1 °F 17% 30.10 in 10.0 mi Calm Calm - N/A   Clear
12:53 PM 68.0 °F - 15.1 °F 13% 30.09 in 10.0 mi ENE 3.5 mph - N/A   Clear
1:53 PM 69.1 °F - 15.1 °F 13% 30.07 in 10.0 mi Calm Calm - N/A   Clear
2:53 PM 71.1 °F - 18.0 °F 13% 30.05 in 10.0 mi Calm Calm - N/A   Clear
3:53 PM 71.1 °F - 15.1 °F 12% 30.04 in 10.0 mi Calm Calm - N/A   Clear
4:53 PM 73.0 °F - 19.0 °F 13% 30.02 in 10.0 mi South 4.6 mph - N/A   Clear
5:53 PM 73.0 °F - 21.0 °F 14% 30.01 in 10.0 mi South 4.6 mph - N/A   Clear
6:53 PM 71.1 °F - 21.0 °F 15% 30.02 in 10.0 mi South 5.8 mph - N/A   Clear
7:53 PM 64.9 °F - 24.1 °F 21% 30.03 in 10.0 mi Calm Calm - N/A   Clear
8:53 PM 62.1 °F - 23.0 °F 22% 30.04 in 10.0 mi South 4.6 mph - N/A   Clear
9:53 PM 61.0 °F - 21.9 °F 22% 30.05 in 10.0 mi Calm Calm - N/A   Clear
10:53 PM 59.0 °F - 21.9 °F 24% 30.05 in 10.0 mi Calm Calm - N/A   Clear
11:53 PM 57.0 °F - 21.0 °F 25% 30.06 in 10.0 mi SSW 3.5 mph - N/A   Clear